Amur-2507 — XUEC6 — position and weather

sailwx.info

Track history (hours):
 
Tides and Currents Weather Stations Pressure Air Temp Water Temp Dewpoint Dewpoint Depression Visibility Wind Speed Wind Dir Waves Ship Positions

Amur-2507

Last reported at 2014-Nov-23 09:28 UTC. Time now 2014-Nov-23 09:53 UTC.
Position N 40°51' E 029°11'.

Length 115 m; draft 3.2 m.

Type: Cargo ship. MMSI: 515694000.

Date/timePositionNaut miles runAvg speedWind from/ knotsBaromVisibWave heightAir tempDewpointWater temp
2014-Nov-23 09:28N 40°51' E 029°11'0 0.0
2014-Nov-23 08:28N 40°51' E 029°11'0 0.0
2014-Nov-23 07:28N 40°51' E 029°11'0 0.0
2014-Nov-23 06:28N 40°51' E 029°11'0 0.0
2014-Nov-23 05:28N 40°51' E 029°11'0 0.0
2014-Nov-23 04:28N 40°51' E 029°11'0 0.0
2014-Nov-23 03:22N 40°51' E 029°11'0 0.0
2014-Nov-23 02:28N 40°51' E 029°11'0 0.0
2014-Nov-23 01:28N 40°51' E 029°11'0 0.0
2014-Nov-23 00:16N 40°51' E 029°11'0 0.0
2014-Nov-22 23:28N 40°51' E 029°11'0 0.0
2014-Nov-22 22:28N 40°51' E 029°11'0 0.0
2014-Nov-22 21:28N 40°51' E 029°11'0 0.0
2014-Nov-22 20:33N 40°51' E 029°11'0 0.0
2014-Nov-22 19:33N 40°51' E 029°11'0 0.0
2014-Nov-22 18:27N 40°51' E 029°11'0 0.0
2014-Nov-22 17:21N 40°51' E 029°11'0 0.0
2014-Nov-22 16:18N 40°51' E 029°11'0 0.0
2014-Nov-22 15:14N 40°51' E 029°11'0 0.0
2014-Nov-22 13:27N 40°51' E 029°11'0 0.0
2014-Nov-22 12:30N 40°51' E 029°11'3 3.0
2014-Nov-22 11:33N 40°49' E 029°08'7 7.3
2014-Nov-22 10:33N 40°49' E 028°59'  
2014-Nov-16 16:05N 44°15' E 034°02'7 8.0
2014-Nov-16 15:12N 44°20' E 034°10'5 8.1
2014-Nov-16 14:33N 44°22' E 034°17'8 8.0
2014-Nov-16 13:33N 44°25' E 034°27'8 8.2
2014-Nov-16 12:33N 44°28' E 034°38'8 8.2
2014-Nov-16 11:33N 44°31' E 034°48'8 8.4
2014-Nov-16 10:33N 44°34' E 034°59'8 8.4
2014-Nov-16 09:33N 44°37' E 035°10'  
Track history (hours):
 
Tides and Currents Weather Stations Pressure Air Temp Water Temp Dewpoint Dewpoint Depression Visibility Wind Speed Wind Dir Waves Ship Positions

Amur-2507

Last reported at 2014-Nov-23 09:28 UTC. Time now 2014-Nov-23 09:53 UTC.
Position N 40°51' E 029°11'.

Length 115 m; draft 3.2 m.

Type: Cargo ship. MMSI: 515694000.

Date/timePositionNaut miles runAvg speedWind from/ knotsBaromVisibWave heightAir tempDewpointWater temp
2014-Nov-23 09:28N 40°51' E 029°11'0 0.0
2014-Nov-23 08:28N 40°51' E 029°11'0 0.0
2014-Nov-23 07:28N 40°51' E 029°11'0 0.0
2014-Nov-23 06:28N 40°51' E 029°11'0 0.0
2014-Nov-23 05:28N 40°51' E 029°11'0 0.0
2014-Nov-23 04:28N 40°51' E 029°11'0 0.0
2014-Nov-23 03:22N 40°51' E 029°11'0 0.0
2014-Nov-23 02:28N 40°51' E 029°11'0 0.0
2014-Nov-23 01:28N 40°51' E 029°11'0 0.0
2014-Nov-23 00:16N 40°51' E 029°11'0 0.0
2014-Nov-22 23:28N 40°51' E 029°11'0 0.0
2014-Nov-22 22:28N 40°51' E 029°11'0 0.0
2014-Nov-22 21:28N 40°51' E 029°11'0 0.0
2014-Nov-22 20:33N 40°51' E 029°11'0 0.0
2014-Nov-22 19:33N 40°51' E 029°11'0 0.0
2014-Nov-22 18:27N 40°51' E 029°11'0 0.0
2014-Nov-22 17:21N 40°51' E 029°11'0 0.0
2014-Nov-22 16:18N 40°51' E 029°11'0 0.0
2014-Nov-22 15:14N 40°51' E 029°11'0 0.0
2014-Nov-22 13:27N 40°51' E 029°11'0 0.0
2014-Nov-22 12:30N 40°51' E 029°11'3 3.0
2014-Nov-22 11:33N 40°49' E 029°08'7 7.3
2014-Nov-22 10:33N 40°49' E 028°59'  
2014-Nov-16 16:05N 44°15' E 034°02'7 8.0
2014-Nov-16 15:12N 44°20' E 034°10'5 8.1
2014-Nov-16 14:33N 44°22' E 034°17'8 8.0
2014-Nov-16 13:33N 44°25' E 034°27'8 8.2
2014-Nov-16 12:33N 44°28' E 034°38'8 8.2
2014-Nov-16 11:33N 44°31' E 034°48'8 8.4
2014-Nov-16 10:33N 44°34' E 034°59'8 8.4
2014-Nov-16 09:33N 44°37' E 035°10'  

Dump ship's entire track history